Weather History for Clermont County, Batavia, OH

Change the Weather History Date:

Wednesday, May 29, 2013

  Actual Average (KLUK) Record (KLUK)
Temperature  
Mean Temperature 78 °F -  
Max Temperature 86 °F 77 °F 91 °F (1977)
Min Temperature 69 °F 57 °F 39 °F (1949)
Cooling Degree Days 12    
Growing Degree Days 28 (Base 50)    
Moisture  
Dew Point 59 °F    
Average Humidity 52    
Maximum Humidity 69    
Minimum Humidity 35    
Precipitation  
Precipitation 0.00 in - - ()
Sea Level Pressure  
Sea Level Pressure 30.07 in    
Wind  
Wind Speed 7 mph ()    
Max Wind Speed 18 mph    
Max Gust Speed 26 mph    
Visibility 10.0 miles    
Events      
Averages and records for this station are not official NWS values.
T = Trace of Precipitation, MM = Missing Value Source: Averaged Metar Reports

Daily Weather History Graph

Daily Weather History Graph

Search for Another Location

Airport:

Trip Planner

Search our weather history database for the weather conditions in past years. The results will help you decide how hot, cold, wet, or windy it might be!

Date:

Astronomy

May. 29, 2013 Rise Set
Actual Time 6:14 AM EDT 8:54 PM EDT
Civil Twilight 5:42 AM EDT 9:26 PM EDT
Nautical Twilight 5:03 AM EDT 10:05 PM EDT
Astronomical Twilight 4:19 AM EDT 10:49 PM EDT
Moon 12:18 AM EDT (5/29) 11:10 AM EDT (5/29)
Length of Visible Light 15h 43m
Length of Day
14h 40m
Waning Gibbous, 73% of the Moon is Illuminated
May 29
Waning Gibbous
May 31
Last Quarter
Jun 8
New
Jun 16
First Quarter
Jun 23
Full

Hourly Weather History & Observations

Time (EDT) Temp. Heat Index Dew Point Humidity Pressure Visibility Wind Dir Wind Speed Gust Speed Precip Events Conditions
12:18 AM 75.2 °F - 55.4 °F 50% 30.01 in 10.0 mi SSW 8.1 mph - N/A   Clear
12:38 AM 75.2 °F - 55.4 °F 50% 30.03 in 10.0 mi SW 8.1 mph - N/A   Clear
12:58 AM 75.2 °F - 55.4 °F 50% 30.04 in 10.0 mi SW 4.6 mph - N/A   Clear
1:18 AM 73.4 °F - 55.4 °F 53% 30.04 in 10.0 mi SW 5.8 mph - N/A   Clear
1:38 AM 73.4 °F - 55.4 °F 53% 30.04 in 10.0 mi SSW 5.8 mph - N/A   Clear
1:59 AM 73.4 °F - 55.4 °F 53% 30.05 in 10.0 mi SW 5.8 mph - N/A   Clear
2:18 AM 73.4 °F - 55.4 °F 53% 30.04 in 10.0 mi SSW 5.8 mph - N/A   Clear
2:38 AM 73.4 °F - 55.4 °F 53% 30.04 in 10.0 mi SSW 6.9 mph - N/A   Clear
2:59 AM 73.4 °F - 55.4 °F 53% 30.04 in 10.0 mi SW 5.8 mph - N/A   Clear
3:18 AM 73.4 °F - 55.4 °F 53% 30.05 in 10.0 mi SW 8.1 mph - N/A   Clear
3:38 AM 73.4 °F - 55.4 °F 53% 30.05 in 10.0 mi SW 5.8 mph - N/A   Clear
3:58 AM 73.4 °F - 55.4 °F 53% 30.05 in 10.0 mi SW 6.9 mph - N/A   Clear
4:18 AM 71.6 °F - 55.4 °F 57% 30.06 in 10.0 mi SW 5.8 mph - N/A   Clear
4:38 AM 71.6 °F - 57.2 °F 60% 30.05 in 10.0 mi SSW 6.9 mph - N/A   Clear
4:58 AM 71.6 °F - 57.2 °F 60% 30.05 in 10.0 mi SW 6.9 mph - N/A   Clear
5:18 AM 71.6 °F - 57.2 °F 60% 30.06 in 10.0 mi SW 8.1 mph - N/A   Clear
5:38 AM 71.6 °F - 57.2 °F 60% 30.06 in 10.0 mi SW 6.9 mph - N/A   Clear
5:58 AM 69.8 °F - 57.2 °F 64% 30.07 in 10.0 mi SW 5.8 mph - N/A   Clear
6:18 AM 69.8 °F - 59.0 °F 68% 30.07 in 10.0 mi SSW 5.8 mph - N/A   Clear
6:39 AM 69.8 °F - 59.0 °F 68% 30.08 in 10.0 mi SSW 4.6 mph - N/A   Clear
6:58 AM 69.8 °F - 59.0 °F 68% 30.08 in 10.0 mi SSW 5.8 mph - N/A   Clear
7:18 AM 69.8 °F - 59.0 °F 68% 30.09 in 10.0 mi SSW 4.6 mph - N/A   Clear
7:39 AM 71.6 °F - 59.0 °F 64% 30.10 in 10.0 mi SW 4.6 mph - N/A   Clear
7:58 AM 71.6 °F - 59.0 °F 64% 30.10 in 10.0 mi SW 5.8 mph - N/A   Clear
8:18 AM 71.6 °F - 59.0 °F 64% 30.10 in 10.0 mi SSW 9.2 mph - N/A   Scattered Clouds
8:38 AM 73.4 °F - 60.8 °F 65% 30.11 in 10.0 mi SW 6.9 mph - N/A   Clear
8:58 AM 73.4 °F - 60.8 °F 65% 30.11 in 10.0 mi SW 8.1 mph - N/A   Clear
9:19 AM 73.4 °F - 60.8 °F 65% 30.11 in 10.0 mi SW 11.5 mph - N/A   Clear
9:38 AM 75.2 °F - 60.8 °F 61% 30.11 in 10.0 mi SW 10.4 mph - N/A   Clear
9:58 AM 77.0 °F - 60.8 °F 57% 30.11 in 10.0 mi SW 11.5 mph - N/A   Clear
10:18 AM 77.0 °F - 60.8 °F 57% 30.11 in 10.0 mi SW 9.2 mph - N/A   Clear
10:38 AM 78.8 °F - 62.6 °F 57% 30.11 in 10.0 mi WSW 10.4 mph - N/A   Clear
10:58 AM 80.6 °F 81.8 °F 62.6 °F 54% 30.11 in 10.0 mi WSW 12.7 mph - N/A   Clear
11:18 AM 80.6 °F 81.5 °F 60.8 °F 51% 30.11 in 10.0 mi WSW 12.7 mph 16.1 mph N/A   Clear
11:39 AM 80.6 °F 81.1 °F 59.0 °F 48% 30.10 in 10.0 mi WSW 11.5 mph 21.9 mph N/A   Clear
11:58 AM 82.4 °F 82.5 °F 59.0 °F 45% 30.10 in 10.0 mi WSW 16.1 mph 20.7 mph N/A   Clear
12:18 PM 82.4 °F 82.5 °F 59.0 °F 45% 30.11 in 10.0 mi WSW 11.5 mph 18.4 mph N/A   Clear
12:39 PM 82.4 °F 82.0 °F 57.2 °F 42% 30.11 in 10.0 mi WSW 18.4 mph 26.5 mph N/A   Clear
12:58 PM 84.2 °F 83.8 °F 59.0 °F 42% 30.10 in 10.0 mi SW 18.4 mph 25.3 mph N/A   Clear
1:18 PM 84.2 °F 84.4 °F 60.8 °F 45% 30.10 in 10.0 mi WSW 13.8 mph 20.7 mph N/A   Scattered Clouds
1:38 PM 86.0 °F 86.1 °F 60.8 °F 43% 30.10 in 10.0 mi WSW 15.0 mph 21.9 mph N/A   Clear
1:59 PM 84.2 °F 83.5 °F 57.2 °F 40% 30.09 in 10.0 mi SW 12.7 mph 19.6 mph N/A   Clear
2:18 PM 86.0 °F 84.9 °F 57.2 °F 37% 30.09 in 10.0 mi SW 9.2 mph 20.7 mph N/A   Clear
2:38 PM 84.2 °F 83.8 °F 59.0 °F 42% 30.09 in 10.0 mi SSW 9.2 mph 18.4 mph N/A   Scattered Clouds
2:59 PM 84.2 °F 83.8 °F 59.0 °F 42% 30.08 in 10.0 mi SW 6.9 mph - N/A   Scattered Clouds
3:18 PM 86.0 °F 84.9 °F 57.2 °F 37% 30.08 in 10.0 mi SW 15.0 mph - N/A   Scattered Clouds
3:38 PM 86.0 °F 84.5 °F 55.4 °F 35% 30.08 in 10.0 mi SSW 10.4 mph 18.4 mph N/A   Scattered Clouds
3:59 PM 86.0 °F 85.4 °F 59.0 °F 40% 30.08 in 10.0 mi WSW 15.0 mph 19.6 mph N/A   Clear
4:18 PM 86.0 °F 85.4 °F 59.0 °F 40% 30.07 in 10.0 mi SW 10.4 mph 19.6 mph N/A   Clear
4:38 PM 86.0 °F 85.4 °F 59.0 °F 40% 30.07 in 10.0 mi SW 8.1 mph - N/A   Scattered Clouds
4:59 PM 86.0 °F 85.4 °F 59.0 °F 40% 30.07 in 10.0 mi SW 9.2 mph 20.7 mph N/A   Clear
5:18 PM 86.0 °F 85.4 °F 59.0 °F 40% 30.06 in 10.0 mi WSW 11.5 mph 20.7 mph N/A   Clear
5:38 PM 86.0 °F 84.5 °F 55.4 °F 35% 30.06 in 10.0 mi SW 10.4 mph 20.7 mph N/A   Clear
5:58 PM 86.0 °F 84.9 °F 57.2 °F 37% 30.06 in 10.0 mi SW 12.7 mph 16.1 mph N/A   Clear
6:18 PM 86.0 °F 85.4 °F 59.0 °F 40% 30.06 in 10.0 mi SW 13.8 mph - N/A   Clear
6:38 PM 86.0 °F 85.4 °F 59.0 °F 40% 30.06 in 10.0 mi WSW 12.7 mph - N/A   Clear
6:58 PM 86.0 °F 85.4 °F 59.0 °F 40% 30.06 in 10.0 mi WSW 8.1 mph - N/A   Clear
7:18 PM 84.2 °F 84.4 °F 60.8 °F 45% 30.05 in 10.0 mi SSW 5.8 mph - N/A   Scattered Clouds
7:38 PM 82.4 °F 82.9 °F 60.8 °F 48% 30.05 in 10.0 mi SSW 5.8 mph - N/A   Scattered Clouds
7:59 PM 82.4 °F 82.9 °F 60.8 °F 48% 30.05 in 10.0 mi South 3.5 mph - N/A   Clear
8:18 PM 80.6 °F 81.5 °F 60.8 °F 51% 30.05 in 10.0 mi South 3.5 mph - N/A   Clear
8:38 PM 80.6 °F 81.5 °F 60.8 °F 51% 30.05 in 10.0 mi South 3.5 mph - N/A   Clear
8:59 PM 78.8 °F - 62.6 °F 57% 30.05 in 10.0 mi Calm Calm - N/A   Clear
9:18 PM 78.8 °F - 62.6 °F 57% 30.05 in 10.0 mi Calm Calm - N/A   Clear
9:33 PM 77.0 °F - 62.6 °F 61% 30.05 in 10.0 mi South 3.5 mph - N/A   Clear
9:54 PM 77.0 °F - 62.6 °F 61% 30.05 in 10.0 mi SSE 3.5 mph - N/A   Clear
10:13 PM 77.0 °F - 62.6 °F 61% 30.06 in 10.0 mi South 3.5 mph - N/A   Clear
10:33 PM 77.0 °F - 62.6 °F 61% 30.07 in 10.0 mi Calm Calm - N/A   Clear
10:54 PM 77.0 °F - 62.6 °F 61% 30.08 in 10.0 mi South 3.5 mph - N/A   Clear
11:13 PM 75.2 °F - 62.6 °F 65% 30.08 in 10.0 mi Calm Calm - N/A   Clear
11:33 PM 75.2 °F - 62.6 °F 65% 30.08 in 10.0 mi South 3.5 mph - N/A   Clear
11:54 PM 73.4 °F - 62.6 °F 69% 30.08 in 10.0 mi South 3.5 mph - N/A   Clear